Regional Weather Roundup
Issued by NWS Green Bay, WI

Home | Current Version | Previous Version | Text Only | Print | Product List | Glossary On
Versions: 1 2 3 4 5 6 7 8 9 10 11 12 13 14 15 16 17 18 19 20 21 22 23 24 25 26 27 28 29 30 31 32 33 34 35 36 37 38 39 40 41 42 43 44 45 46 47 48 49 50
000
ASUS43 KGRB 301900
RWRGRB

NORTH-CENTRAL AND NORTHEAST WISCONSIN REGIONAL WEATHER ROUNDUP
NATIONAL WEATHER SERVICE GREEN BAY WI
200 PM CDT MON MAY 30 2016

WIZ005-009-010>012-018-019-302000-
NORTH CENTRAL WISCONSIN

CITY           SKY/WX    TMP DP  RH WIND       PRES   REMARKS
IRONWOOD       SUNNY     73  48  40 NW12      29.96S
MANITOWISH WTR NOT AVBL
ARBOR VITAE    NOT AVBL
EAGLE RIVER    NOT AVBL
LAND O LAKES   NOT AVBL
RHINELANDER    MOSUNNY   77  46  33 W13G21    30.02S HAZE
PHILLIPS       MOSUNNY   76  50  39 W9        30.00F
ANTIGO         NOT AVBL
TOMAHAWK       NOT AVBL
MERRILL        NOT AVBL
$$

WIZ013-073-302000-
NORTHEAST WISCONSIN

CITY           SKY/WX    TMP DP  RH WIND       PRES   REMARKS
IRON MOUNTAIN  MOSUNNY   77  45  32 W16G24    29.97S
MARINETTE      PTSUNNY   77  46  33 NW5       29.98F
$$

WIZ017-030-035>037-045-302000-
CENTRAL WISCONSIN

CITY           SKY/WX    TMP DP  RH WIND       PRES   REMARKS
MEDFORD        NOT AVBL
WAUSAU         MOSUNNY   78  49  35 NW9G20    30.01S
MOSINEE        MOSUNNY   75  48  38 W9        30.04S
MARSHFIELD     SUNNY     78  49  35 W6        30.02F
WISC RAPIDS    SUNNY     81  43  26 NW10      30.02F
STEVENS POINT  NOT AVBL
WAUPACA        SUNNY     82  44  26 W10       30.01F
SHAWANO        NOT AVBL
CLINTONVILLE   NOT AVBL
WAUTOMA        SUNNY    N/A N/A N/A CALM      30.00F
$$

WIZ038-039-048-051-302000-
FOX VALLEY

CITY           SKY/WX    TMP DP  RH WIND       PRES   REMARKS
NWS GREEN BAY  SUNNY     79  51  37 W10G18    29.99F
APPLETON       MOSUNNY   77  43  29 NW12      30.00F
OSHKOSH        MOSUNNY   78  48  34 CALM      30.00F
FOND DU LAC    MOSUNNY   79  51  37 CALM      30.01F
$$

WIZ022-050-052-302000-
EAST CENTRAL WISCONSIN

CITY           SKY/WX    TMP DP  RH WIND       PRES   REMARKS
EPHRAIM        FAIR      75  50  41 SW5       29.98S
STURGEON BAY   NOT AVBL
MANITOWOC      NOT AVBL
SHEBOYGAN      SUNNY     79  50  36 NW10      30.00F
$$

LMZ563-521-522-541>543-302000-
LAKESHORE

STATION/POSITION TIME  TEMP    WIND        PRES    VSBY  WAVE
                       AIR SEA DIR/SP/G                  HT/PER
                 (UTC) (F)     (DEG/KT/KT) (MB)    (MI)  (FT/S)
SHEBOYGAN LKSHOR 1800   63     180/  8/ 10 1016.6F
KEWAUNEE LKSHORE 1800          170/ 13/ 15 1015.5R
NORTHPORT PIER   1800   71     310/  7/ 11 1014.9S
N MID LAKE BUOY  1750   53 49  200/  6/  6 1014.9F         1
CHAMBERS ISLAND  1840   73     180/  7/ 11 1014.9S
MENOMINEE LKSHOR 1800   76     300/  6/ 15 1014.1R
$$



USA.gov is the U.S. government's official web portal to all federal, state and local government web resources and services.